GW6173 Weather Reports


time (UTC)temp
C
wind
direction
speed
KPH
gust
KPH
rain 1hr
cm
rain 24hr
cm
rain mn
cm
humidity
%
barometer
mb
20260505083013 11 333 0.0 3.2 0.00 0.00 0.00 90 1014.0
20260505081509 11 333 0.0 3.2 0.00 0.00 0.00 90 1014.0
20260505080007 11 333 0.0 4.8 0.00 0.00 0.00 90 1013.9
20260505073010 11 333 3.2 6.4 0.00 0.00 0.00 90 1013.5
20260505071516 11 333 0.0 6.4 0.00 0.00 0.00 90 1013.5
20260505070006 11 333 1.6 8.0 0.00 0.00 0.00 90 1013.5
20260505064514 11 333 0.0 8.0 0.00 0.00 0.00 90 1013.4
20260505063013 11 333 3.2 8.0 0.00 0.00 0.00 89 1013.3
20260505061511 11 335 1.6 8.0 0.00 0.00 0.00 88 1013.2
20260505060006 11 339 4.8 14.5 0.00 0.00 0.00 87 1013.1
20260505054516 12 304 8.0 16.1 0.00 0.00 0.00 87 1013.0
20260505053023 12 305 9.7 17.7 0.00 0.00 0.00 86 1013.0
20260505041516 15 319 12.9 20.9 0.00 0.00 0.00 79 1012.1
20260505040028 15 321 12.9 20.9 0.00 0.00 0.00 77 1011.8
20260505034511 16 296 8.0 14.5 0.00 0.00 0.00 74 1011.6
20260505033012 17 310 1.6 17.7 0.00 0.00 0.00 72 1011.2
20260505024520 20 328 6.4 16.1 0.00 0.00 0.00 62 1010.6
20260505023018 20 295 8.0 22.5 0.00 0.00 0.00 60 1010.5
20260505021510 21 323 12.9 24.1 0.00 0.00 0.00 57 1010.4
20260505020024 21 321 17.7 29.0 0.00 0.00 0.00 54 1010.3
20260505014522 21 284 14.5 27.4 0.00 0.00 0.00 52 1010.2
20260505011515 22 322 16.1 30.6 0.00 0.00 0.00 49 1010.2
20260505003013 24 316 12.9 27.4 0.00 0.00 0.00 44 1010.2
20260505001512 24 304 9.7 30.6 0.00 0.00 0.00 46 1010.2
20260505000013 24 301 17.7 27.4 0.00 0.00 0.00 45 1010.1
20260504233014 24 333 14.5 29.0 0.00 0.00 0.00 43 1009.9
20260504231513 25 304 16.1 30.6 0.00 0.00 0.00 47 1010.1
20260504230012 25 247 3.2 16.1 0.00 0.00 0.00 61 1010.2
20260504224513 25 234 4.8 12.9 0.00 0.00 0.00 60 1010.3
20260504221521 23 215 6.4 14.5 0.00 0.00 0.00 63 1010.5
20260504220016 23 214 6.4 14.5 0.00 0.00 0.00 58 1010.7
20260504214514 23 241 6.4 14.5 0.00 0.00 0.00 62 1010.9
20260504211512 22 257 4.8 14.5 0.00 0.00 0.00 63 1011.1
20260504210016 22 155 1.6 16.1 0.00 0.00 0.00 63 1011.2
20260504204514 22 254 1.6 14.5 0.00 0.00 0.00 61 1011.4
20260504203013 21 163 1.6 9.7 0.00 0.00 0.00 64 1011.6
20260504201514 21 165 4.8 14.5 0.00 0.00 0.00 66 1011.7
20260504200033 20 186 4.8 16.1 0.00 0.00 0.00 61 1011.9
20260504194512 20 198 1.6 16.1 0.00 0.00 0.00 68 1012.1
20260504190016 18 232 4.8 16.1 0.00 0.00 0.00 75 1012.4
20260504184515 18 205 4.8 12.9 0.00 0.00 0.00 74 1012.6
20260504183029 17 229 3.2 12.9 0.00 0.00 0.00 76 1012.9
20260504181523 17 225 1.6 16.1 0.00 0.00 0.00 76 1012.8
20260504180020 17 214 1.6 12.9 0.00 0.00 0.00 78 1012.9
20260504174516 16 240 1.6 14.5 0.00 0.00 0.00 78 1012.8
20260504173014 16 175 8.0 16.1 0.00 0.00 0.00 78 1012.9
20260504171522 16 173 6.4 19.3 0.00 0.00 0.00 79 1012.7